Location: Poughquag
(41.6090°N, 73.6820°W)
Time: 06:04:05
(UTC-04:00)

ITUPSAT 1 - Pass Details

Date: 24 June 2024
Orbit: 695 x 705 km, 98.5° (Epoch: 24 July)

Event Time Altitude Azimuth Distance (km) Brightness Sun altitude
Rises 22:20:49 0° 24° (NNE) 3,106 ? -15.6°
Reaches altitude 10° 22:23:20 10° 35° (NE) 2,183 ? -15.9°
Maximum altitude 22:27:32 30° 96° (E) 1,256 ? -16.3°
Enters shadow 22:28:45 27° 123° (ESE) 1,356 ? -16.5°
